Tracking 19153 objects as of 26-Apr-2018
HD Live streaming from Space Station
objects crossing your sky now

COSMOS 2147

Track COSMOS 2147 now!
10-day predictions
COSMOS 2147 is classified as:


NORAD ID: 21303
Int'l Code: 1991-033E
Perigee: 1,395.5 km
Apogee: 1,422.8 km
Inclination: 82.6 °
Period: 113.8 minutes
Semi major axis: 7780 km
RCS: 1.105 m2 (large)
Launch date: May 16, 1991
Source: Commonwealth of Independent States (former USSR) (CIS)
Launch site: PLESETSK MISSILE AND SPACE COMPLEX (PKMTR)
aabbcc
Your satellite tracking list
Your tracking list is empty




NASA's NSSDC Master Catalog

Two Line Element Set (TLE):
1 21303U 91033E   18115.73738184 +.00000001 +00000-0 -50089-4 0  9990
2 21303 082.5708 026.0581 0017561 296.6906 091.5087 12.65081120244030
Source of the keplerian elements: AFSPC